Alamogordo, NM

8:10 PM MDT on April 25, 2018 (GMT -0600)
Alamogordo-White Sands Regional

Weather History for KALM - October, 2013

Change the Weather History Date:

Monday, October 14, 2013

  Actual Average Record
Temperature  
Mean Temperature 68 °F -  
Max Temperature 77 °F 78 °F 93 °F (1968)
Min Temperature 59 °F 47 °F 33 °F (1997)
Cooling Degree Days 3    
Growing Degree Days 18 (Base 50)    
Moisture  
Dew Point 46 °F    
Average Humidity 46    
Maximum Humidity 67    
Minimum Humidity 29    
Precipitation  
Precipitation 0.00 in - - ()
Sea Level Pressure  
Sea Level Pressure 30.07 in    
Wind  
Wind Speed 10 mph (South)    
Max Wind Speed 20 mph    
Max Gust Speed 25 mph    
Visibility 10 miles    
Events      
Averages and records for this station are not official NWS values.
T = Trace of Precipitation, MM = Missing Value Source: NWS Daily Summary

Daily Weather History Graph

Daily Weather History Graph

Search for Another Location

Airport or City:

Astronomy

Oct. 14, 2013 Rise Set
Actual Time 7:07 AM MDT 6:31 PM MDT
Civil Twilight 6:42 AM MDT 6:56 PM MDT
Nautical Twilight 6:14 AM MDT 7:25 PM MDT
Astronomical Twilight 5:45 AM MDT 7:53 PM MDT
Moon 3:51 PM MDT (10/14) 2:40 AM MDT (10/14)
Length of Visible Light 12h 13m
Length of Day
11h 24m
Waxing Gibbous, 80% of the Moon is Illuminated
Oct 14
Waxing Gibbous
Oct 18
Full
Oct 26
Last Quarter
Nov 3
New
Nov 9
First Quarter

Hourly Weather History & Observations

Time (MDT) Temp. Dew Point Humidity Pressure Visibility Wind Dir Wind Speed Gust Speed Precip Events Conditions
12:15 AM 69.8 °F 46.4 °F 43% 30.08 in 10.0 mi South 12.7 mph - N/A   Mostly Cloudy
12:35 AM 68.0 °F 46.4 °F 46% 30.09 in 10.0 mi South 12.7 mph - N/A   Mostly Cloudy
12:55 AM 68.0 °F 46.4 °F 46% 30.08 in 10.0 mi South 13.8 mph - N/A   Scattered Clouds
1:15 AM 68.0 °F 46.4 °F 46% 30.09 in 10.0 mi South 10.4 mph - N/A   Clear
1:35 AM 66.2 °F 46.4 °F 49% 30.08 in 10.0 mi South 10.4 mph - N/A   Clear
1:55 AM 66.2 °F 46.4 °F 49% 30.09 in 10.0 mi South 12.7 mph - N/A   Clear
2:15 AM 66.2 °F 46.4 °F 49% 30.09 in 10.0 mi SSE 12.7 mph 16.1 mph N/A   Clear
2:35 AM 66.2 °F 46.4 °F 49% 30.09 in 10.0 mi South 11.5 mph - N/A   Clear
2:55 AM 66.2 °F 46.4 °F 49% 30.08 in 10.0 mi South 10.4 mph - N/A   Clear
3:15 AM 66.2 °F 46.4 °F 49% 30.08 in 10.0 mi SSE 11.5 mph - N/A   Clear
3:35 AM 66.2 °F 46.4 °F 49% 30.08 in 10.0 mi SSE 9.2 mph - N/A   Clear
3:55 AM 64.4 °F 48.2 °F 56% 30.07 in 10.0 mi South 11.5 mph - N/A   Clear
4:15 AM 64.4 °F 46.4 °F 52% 30.07 in 10.0 mi SSE 10.4 mph - N/A   Clear
4:35 AM 64.4 °F 48.2 °F 56% 30.07 in 10.0 mi SSE 11.5 mph - N/A   Clear
4:55 AM 62.6 °F 46.4 °F 55% 30.07 in 10.0 mi SSE 10.4 mph - N/A   Clear
5:15 AM 62.6 °F 46.4 °F 55% 30.07 in 10.0 mi South 6.9 mph - N/A   Clear
5:35 AM 62.6 °F 48.2 °F 59% 30.07 in 10.0 mi SSE 8.1 mph - N/A   Clear
5:55 AM 59.0 °F 48.2 °F 67% 30.07 in 10.0 mi South 8.1 mph - N/A   Clear
6:15 AM 59.0 °F 48.2 °F 67% 30.07 in 10.0 mi SSW 8.1 mph - N/A   Clear
6:35 AM 60.8 °F 46.4 °F 59% 30.08 in 10.0 mi South 9.2 mph - N/A   Clear
6:55 AM 60.8 °F 46.4 °F 59% 30.08 in 10.0 mi SSE 10.4 mph - N/A   Clear
7:15 AM 62.6 °F 46.4 °F 55% 30.08 in 10.0 mi SSE 6.9 mph - N/A   Clear
7:35 AM 60.8 °F 48.2 °F 63% 30.09 in 10.0 mi South 8.1 mph - N/A   Clear
7:55 AM 62.6 °F 48.2 °F 59% 30.10 in 10.0 mi South 11.5 mph - N/A   Clear
8:15 AM 64.4 °F 48.2 °F 56% 30.10 in 10.0 mi South 12.7 mph - N/A   Clear
8:35 AM 64.4 °F 48.2 °F 56% 30.12 in 10.0 mi SSE 12.7 mph - N/A   Clear
8:55 AM 64.4 °F 48.2 °F 56% 30.12 in 10.0 mi SSE 9.2 mph - N/A   Clear
9:15 AM 66.2 °F 48.2 °F 52% 30.11 in 10.0 mi SSE 11.5 mph - N/A   Clear
9:35 AM 68.0 °F 48.2 °F 49% 30.12 in 10.0 mi SSE 11.5 mph - N/A   Clear
9:55 AM 69.8 °F 48.2 °F 46% 30.13 in 10.0 mi South 9.2 mph - N/A   Clear
10:15 AM 69.8 °F 48.2 °F 46% 30.13 in 10.0 mi South 9.2 mph - N/A   Clear
10:35 AM 69.8 °F 48.2 °F 46% 30.12 in 10.0 mi South 6.9 mph - N/A   Clear
10:55 AM 71.6 °F 50.0 °F 46% 30.12 in 10.0 mi SSE 10.4 mph - N/A   Clear
11:15 AM 69.8 °F 50.0 °F 49% 30.12 in 10.0 mi South 9.2 mph - N/A   Clear
11:35 AM 71.6 °F 48.2 °F 43% 30.10 in 10.0 mi SSE 10.4 mph - N/A   Clear
11:55 AM 71.6 °F 48.2 °F 43% 30.10 in 10.0 mi SW 4.6 mph - N/A   Clear
12:15 PM 73.4 °F 48.2 °F 41% 30.09 in 10.0 mi South 6.9 mph - N/A   Clear
12:35 PM 73.4 °F 48.2 °F 41% 30.08 in 10.0 mi South 9.2 mph 17.3 mph N/A   Clear
12:55 PM 73.4 °F 48.2 °F 41% 30.08 in 10.0 mi South 8.1 mph - N/A   Partly Cloudy
1:15 PM 73.4 °F 48.2 °F 41% 30.07 in 10.0 mi South 8.1 mph - N/A   Scattered Clouds
1:35 PM 71.6 °F 48.2 °F 43% 30.06 in 10.0 mi SSW 5.8 mph - N/A   Partly Cloudy
1:55 PM 71.6 °F 48.2 °F 43% 30.04 in 10.0 mi SSE 9.2 mph - N/A   Partly Cloudy
2:15 PM 73.4 °F 48.2 °F 41% 30.04 in 10.0 mi South 4.6 mph - N/A   Mostly Cloudy
2:35 PM 73.4 °F 46.4 °F 38% 30.03 in 10.0 mi SW 11.5 mph - N/A   Mostly Cloudy
2:55 PM 73.4 °F 48.2 °F 41% 30.02 in 10.0 mi SSW 11.5 mph 17.3 mph N/A   Scattered Clouds
3:15 PM 75.2 °F 44.6 °F 34% 30.02 in 10.0 mi SW 16.1 mph 20.7 mph N/A   Partly Cloudy
3:35 PM 75.2 °F 42.8 °F 31% 30.02 in 10.0 mi SW 16.1 mph 23.0 mph N/A   Clear
3:55 PM 77.0 °F 42.8 °F 29% 30.01 in 10.0 mi SW 19.6 mph 25.3 mph N/A   Partly Cloudy
4:15 PM 75.2 °F 41.0 °F 29% 30.02 in 10.0 mi WSW 11.5 mph 23.0 mph N/A   Clear
4:35 PM 75.2 °F 41.0 °F 29% 30.02 in 10.0 mi WSW 15.0 mph 20.7 mph N/A   Clear
4:55 PM 73.4 °F 46.4 °F 38% 30.02 in 10.0 mi SSW 8.1 mph - N/A   Clear
5:15 PM 73.4 °F 42.8 °F 33% 30.02 in 10.0 mi SSW 11.5 mph 16.1 mph N/A   Clear
5:35 PM 73.4 °F 41.0 °F 31% 30.03 in 10.0 mi WSW 12.7 mph - N/A   Clear
5:55 PM 73.4 °F 39.2 °F 29% 30.03 in 10.0 mi SW 12.7 mph - N/A   Clear
6:15 PM 71.6 °F 39.2 °F 31% 30.03 in 10.0 mi SW 12.7 mph - N/A   Clear
6:35 PM 71.6 °F 41.0 °F 33% 30.03 in 10.0 mi SW 10.4 mph - N/A   Clear
6:55 PM 69.8 °F 41.0 °F 35% 30.03 in 10.0 mi SW 5.8 mph - N/A   Clear
7:15 PM 68.0 °F 41.0 °F 37% 30.04 in 10.0 mi SSW 9.2 mph - N/A   Clear
7:35 PM 68.0 °F 41.0 °F 37% 30.04 in 10.0 mi SSW 4.6 mph - N/A   Clear
7:55 PM 62.6 °F 44.6 °F 52% 30.04 in 10.0 mi SSE 6.9 mph - N/A   Clear
8:15 PM 64.4 °F 44.6 °F 49% 30.05 in 10.0 mi South 8.1 mph - N/A   Clear
8:35 PM 62.6 °F 42.8 °F 48% 30.06 in 10.0 mi South 5.8 mph - N/A   Clear
8:55 PM 64.4 °F 42.8 °F 45% 30.05 in 10.0 mi SSW 5.8 mph - N/A   Clear
9:15 PM 62.6 °F 44.6 °F 52% 30.06 in 10.0 mi SE 3.5 mph - N/A   Clear
9:35 PM 64.4 °F 42.8 °F 45% 30.06 in 10.0 mi SE 6.9 mph - N/A   Clear
9:55 PM 66.2 °F 41.0 °F 40% 30.06 in 10.0 mi SSE 6.9 mph - N/A   Clear
10:15 PM 64.4 °F 44.6 °F 49% 30.06 in 10.0 mi SE 5.8 mph - N/A   Clear
10:35 PM 62.6 °F 42.8 °F 48% 30.06 in 10.0 mi SE 6.9 mph - N/A   Clear
10:55 PM 62.6 °F 44.6 °F 52% 30.05 in 10.0 mi South 4.6 mph - N/A   Clear
11:15 PM 62.6 °F 44.6 °F 52% 30.05 in 10.0 mi SSE 3.5 mph - N/A   Clear
11:35 PM 59.0 °F 44.6 °F 59% 30.05 in 10.0 mi South 4.6 mph - N/A   Clear
11:55 PM 60.8 °F 42.8 °F 52% 30.05 in 10.0 mi ESE 6.9 mph - N/A   Clear